Date,TemperatureHighF,TemperatureAvgF,TemperatureLowF,DewpointHighF,DewpointAvgF,DewpointLowF,HumidityHigh,HumidityAvg,HumidityLow,PressureMaxIn,PressureMinIn,WindSpeedMaxMPH,WindSpeedAvgMPH,GustSpeedMaxMPH,PrecipitationSumIn
2013-1-1,57.6,42.9,29.5,38.3,32.4,27.6,97,70,37,30.17,30.08,4,0,6,0.00
2013-1-2,56.5,36.0,24.8,39.1,30.3,23.3,98,83,39,30.13,30.02,5,0,7,0.00
2013-1-3,58.6,37.1,25.1,39.2,30.9,23.8,98,82,34,30.15,30.05,3,0,5,0.00
2013-1-4,61.6,40.3,29.1,42.1,34.2,28.1,99,82,37,30.17,30.05,4,0,6,0.00
2013-1-5,46.2,39.6,30.0,44.6,38.2,28.7,99,95,82,30.13,29.94,3,0,6,0.46
2013-1-6,56.5,45.0,36.5,46.1,41.5,35.4,99,89,59,30.07,29.95,5,0,9,0.04
2013-1-7,63.2,45.9,33.7,49.7,42.0,32.7,99,88,60,30.12,30.01,9,1,14,0.00
2013-1-8,63.2,46.2,36.2,50.7,42.9,35.6,100,90,60,30.12,30.00,6,0,7,0.00
2013-1-9,49.2,43.8,39.8,48.0,40.4,33.5,100,89,69,30.04,29.87,11,1,18,0.00
2013-1-10,51.3,39.8,29.0,35.3,31.4,27.7,97,74,45,30.09,29.95,16,2,18,0.00
2013-1-11,53.6,41.5,30.0,35.9,32.3,26.3,91,71,49,30.13,30.00,10,1,14,0.00
2013-1-12,34.7,30.3,26.1,32.3,28.1,24.3,94,91,85,30.13,30.06,2,0,3,0.00
2013-1-20,36.5,33.5,31.8,33.2,30.9,29.4,91,90,88,30.07,30.06,0,0,1,0.00
2013-1-21,67.4,41.1,26.6,40.7,32.6,24.5,97,77,30,30.06,29.96,5,0,9,0.00
2013-1-22,66.0,42.9,27.5,42.0,34.6,26.0,98,76,35,30.00,29.86,5,0,7,0.00
2013-1-23,51.0,47.0,41.3,48.0,44.5,38.0,99,91,79,29.98,29.84,3,0,6,0.40
2013-1-24,58.6,51.6,47.4,53.9,50.2,47.1,100,95,84,30.06,29.94,5,0,7,0.01
2013-1-25,62.3,53.6,46.5,55.7,51.1,45.0,100,92,75,30.07,29.91,4,0,5,0.00
2013-1-26,57.8,47.7,39.8,47.0,39.5,34.3,100,76,45,29.93,29.84,17,3,20,0.00
2013-1-27,56.6,46.1,38.2,36.8,34.5,29.4,85,66,36,30.07,29.93,14,3,17,0.00
2013-1-28,58.0,46.8,34.3,40.0,36.9,31.2,94,70,47,30.17,30.04,13,3,19,0.00
2013-1-29,63.4,51.3,42.8,43.3,39.1,35.6,85,64,45,30.23,30.15,16,3,17,0.00
2013-1-30,69.4,50.6,37.8,47.1,40.9,35.8,93,72,38,30.21,30.12,6,1,9,0.00
2013-1-31,69.8,45.6,30.7,46.7,38.2,29.6,99,80,33,30.19,30.05,5,0,9,0.00
2013-2-1,71.6,47.4,31.2,46.7,39.6,30.1,100,78,37,30.10,29.98,6,0,11,0.00
2013-2-2,61.6,44.8,34.6,49.9,40.9,33.5,99,88,63,30.19,30.08,6,0,10,0.00
2013-2-3,64.5,47.8,37.0,49.3,43.0,35.9,100,86,55,30.13,30.01,5,0,9,0.00
2013-2-4,57.8,44.8,36.0,48.4,41.9,35.2,100,90,70,30.06,29.95,11,1,14,0.00
2013-2-5,61.2,49.7,44.6,46.5,43.5,39.2,98,81,55,30.04,29.93,15,2,20,0.00
2013-2-6,62.3,46.9,34.7,44.1,38.1,33.1,97,74,39,30.07,29.97,6,1,12,0.00
2013-2-7,56.2,44.5,34.0,45.8,37.9,32.2,98,80,44,30.03,29.88,16,2,17,0.10
2013-2-8,59.3,42.5,30.0,39.4,33.7,28.6,99,75,31,29.91,29.82,15,2,17,0.00
2013-2-9,64.0,44.1,30.0,35.1,30.9,25.4,91,64,23,29.97,29.88,9,1,11,0.00
2013-2-10,66.9,43.2,27.0,40.4,33.1,25.2,96,72,32,29.99,29.87,5,0,11,0.00
2013-2-11,69.8,47.0,31.3,41.6,34.3,29.2,96,69,26,30.11,29.97,6,0,11,0.00
2013-2-12,65.8,44.4,29.4,43.2,36.1,28.1,98,77,37,30.24,30.11,6,0,11,0.00
2013-2-13,69.9,46.2,30.4,46.4,38.0,29.3,99,77,39,30.22,30.07,9,0,11,0.00
2013-2-14,73.5,49.5,33.2,50.2,40.5,32.1,100,76,38,30.14,30.02,6,1,12,0.00
2013-2-15,74.9,49.5,32.8,47.4,38.5,31.7,99,73,27,30.15,30.08,6,0,9,0.00
2013-2-16,73.7,51.0,37.0,47.2,40.6,35.0,96,72,32,30.13,29.92,10,0,11,0.00
2013-2-17,67.6,46.8,31.0,44.1,37.3,29.9,99,74,35,29.92,29.82,5,0,10,0.00
2013-2-18,56.2,42.9,31.9,43.2,37.1,31.1,100,81,59,29.90,29.78,9,1,15,0.00
2013-2-19,46.5,40.2,35.6,43.7,37.2,31.3,97,89,77,29.84,29.67,7,0,17,0.16
2013-3-4,41.5,37.3,35.2,38.5,35.0,33.1,94,91,89,29.96,29.94,0,0,2,0.00
2013-3-5,53.8,46.5,35.6,48.0,42.0,34.0,98,85,66,29.95,29.64,11,1,23,0.82
2013-3-6,57.3,47.3,34.3,46.7,40.9,32.7,96,80,48,29.93,29.65,15,2,27,0.13
2013-3-7,55.4,44.5,32.8,43.1,37.1,31.7,99,78,47,29.88,29.76,4,0,9,0.00
2013-3-8,64.2,48.3,34.7,39.7,36.8,32.6,93,68,34,29.91,29.71,14,4,20,0.00
2013-3-9,73.2,53.8,35.9,42.5,37.0,32.6,92,58,23,30.20,29.90,11,1,13,0.00
2013-3-10,75.8,52.8,35.0,45.2,38.1,30.0,96,64,24,30.23,30.10,8,1,13,0.00
2013-3-11,76.0,52.2,34.3,50.2,41.6,33.2,99,73,32,30.15,29.98,6,0,12,0.00
2013-3-12,79.0,54.8,37.0,54.5,44.9,35.9,100,74,33,30.05,29.94,9,1,13,0.00
2013-3-13,82.2,56.8,39.2,53.9,45.4,38.1,99,73,23,30.05,29.94,4,0,9,0.00
2013-3-14,76.0,56.3,43.5,53.4,44.4,31.6,98,72,22,30.04,29.96,11,1,17,0.00
2013-3-15,78.5,57.6,41.9,48.6,44.0,38.8,93,65,28,30.01,29.90,16,2,18,0.00
2013-3-16,75.4,57.0,38.9,47.8,40.5,32.8,97,61,22,30.02,29.90,15,3,22,0.00
2013-3-17,74.7,57.1,46.1,45.6,39.2,32.0,76,55,22,30.02,29.91,15,2,20,0.00
2013-3-18,69.4,52.8,37.2,48.0,41.1,34.8,94,68,34,29.99,29.90,5,1,12,0.00
2013-3-19,59.9,50.7,40.2,48.3,42.5,35.4,95,75,53,30.01,29.93,4,0,9,0.04
2013-3-20,60.4,51.6,45.2,54.1,48.5,42.1,99,90,71,30.02,29.93,6,1,10,0.35
2013-3-21,67.6,52.2,42.6,45.7,39.9,37.5,86,65,36,30.02,29.89,12,3,17,0.00
2013-3-22,69.3,53.6,42.5,38.1,33.7,27.2,75,50,23,30.02,29.92,10,2,16,0.00
2013-3-23,73.5,51.5,36.5,43.1,37.6,32.4,90,64,24,30.03,29.91,10,1,12,0.00
2013-3-24,74.7,52.9,36.0,47.1,41.3,34.6,98,70,30,29.97,29.83,8,1,12,0.00
2013-3-25,63.2,48.9,37.5,47.6,42.7,35.9,99,81,53,29.90,29.81,10,1,13,0.00
2013-3-26,69.9,50.9,37.2,51.9,43.4,36.2,99,79,46,29.88,29.80,10,1,16,0.00
2013-3-27,63.9,52.3,41.2,52.2,46.7,39.1,96,82,63,29.89,29.82,9,1,13,0.00
2013-3-28,63.1,53.4,45.4,55.3,49.7,44.3,96,88,67,29.97,29.88,5,0,6,0.04
2013-3-29,78.8,59.3,44.2,57.2,50.2,43.9,100,76,38,29.98,29.89,10,1,15,0.01
2013-3-30,67.8,57.1,51.3,55.2,50.5,47.8,96,80,58,29.95,29.87,11,1,14,0.02
2013-3-31,63.7,55.0,50.1,55.6,53.0,48.9,99,94,66,29.95,29.88,7,0,10,0.26
2013-4-1,69.1,56.2,47.6,55.2,50.9,45.3,100,84,55,30.03,29.93,8,1,14,0.02
2013-4-2,72.1,54.3,43.2,57.6,48.8,42.2,100,84,55,30.07,29.96,9,1,12,0.00
2013-4-3,76.0,56.7,47.7,56.6,50.0,47.0,99,82,41,30.02,29.86,10,1,13,0.00
2013-4-4,60.4,53.9,48.3,58.3,52.3,47.0,100,94,80,29.99,29.86,6,1,11,0.67
2013-4-5,65.8,56.4,50.2,54.8,51.7,48.1,99,86,59,30.07,29.99,9,1,12,0.01
2013-4-6,69.9,57.6,50.2,56.7,50.1,42.3,98,79,45,30.07,29.99,11,1,16,0.00
2013-4-7,67.6,55.6,48.5,56.5,48.8,41.7,98,80,47,30.05,29.71,13,2,16,0.01
2013-4-8,69.3,54.6,44.8,43.5,37.2,32.7,85,55,28,29.96,29.69,14,5,26,0.00
2013-4-9,78.5,60.3,46.7,45.5,40.6,37.0,76,53,25,30.02,29.93,11,3,15,0.00
2013-4-10,86.7,66.5,49.4,52.9,47.2,42.5,82,54,24,30.06,29.93,14,3,20,0.00
2013-4-11,76.3,61.4,50.4,49.3,44.7,42.0,79,57,31,29.97,29.74,13,4,18,0.00
2013-4-12,79.2,59.2,42.2,55.7,46.2,39.4,94,66,35,29.79,29.70,8,1,13,0.00
2013-4-13,73.7,59.4,44.9,46.7,41.4,36.2,89,54,35,29.80,29.69,16,5,22,0.00
2013-4-14,71.8,55.5,44.3,44.9,37.1,26.7,80,53,23,29.80,29.74,26,5,31,0.00
2013-4-15,60.2,51.0,43.1,42.0,35.2,30.1,82,57,35,29.86,29.74,19,5,24,0.00
2013-4-16,70.6,54.2,42.2,39.3,33.4,26.1,69,49,22,30.08,29.86,14,4,18,0.00
2013-4-17,76.1,56.2,38.0,40.1,34.6,26.1,89,52,17,30.17,30.06,8,1,12,0.00
2013-4-18,83.2,59.6,41.9,45.7,40.1,34.2,86,56,21,30.16,30.05,7,1,13,0.00
2013-4-19,83.4,61.7,42.5,54.0,45.9,40.7,97,62,26,30.10,29.97,17,2,20,0.00
2013-4-20,86.1,65.4,46.8,49.3,43.0,37.6,84,49,18,30.00,29.84,12,2,19,0.00
2013-4-21,90.7,66.4,48.3,51.6,45.5,38.5,85,54,19,29.92,29.81,8,1,13,0.00
2013-4-22,93.6,69.1,51.1,53.8,45.3,27.8,83,52,10,29.85,29.72,7,1,12,0.00
2013-4-23,88.8,64.6,46.7,48.8,39.1,15.9,88,48,11,29.81,29.72,12,2,19,0.00
2013-4-24,68.4,53.8,44.3,50.8,45.9,42.7,97,77,51,29.84,29.72,13,2,19,0.00
2013-4-25,71.6,55.1,44.3,52.2,46.1,41.5,91,74,46,30.01,29.85,8,1,15,0.00
2013-4-26,77.2,55.9,41.2,57.0,47.7,39.3,97,77,46,30.10,30.00,10,1,15,0.00
2013-4-27,82.4,59.2,47.0,55.5,48.7,44.2,96,73,35,30.10,29.95,9,1,13,0.00
2013-4-28,91.0,63.8,40.5,58.5,48.2,39.4,99,64,28,29.94,29.76,9,0,11,0.00
2013-4-29,90.7,71.1,56.5,51.7,47.5,45.1,74,46,24,29.78,29.67,14,3,21,0.00
2013-4-30,86.5,68.3,53.3,45.5,41.0,36.0,63,41,19,29.77,29.67,13,3,17,0.00
2013-5-1,88.8,69.9,49.2,43.4,29.8,16.9,67,28,9,29.98,29.75,12,2,17,0.00
2013-5-2,94.3,67.0,42.9,47.4,37.1,28.8,80,43,11,30.02,29.95,7,1,12,0.00
2013-5-3,96.3,67.2,42.2,48.1,41.6,37.1,84,48,15,29.96,29.69,8,1,14,0.00
2013-5-4,92.1,67.3,50.7,51.2,43.0,31.3,86,51,12,29.69,29.44,13,2,19,0.00
2013-5-5,63.1,57.9,52.5,52.7,48.7,47.4,86,72,60,29.71,29.51,7,1,16,0.00
2013-5-6,70.8,59.9,46.5,52.1,48.6,44.3,96,69,44,29.85,29.71,10,1,13,0.00
2013-5-7,74.7,60.3,46.0,52.7,49.1,44.3,97,70,41,29.92,29.85,7,1,14,0.00
2013-5-8,72.1,57.2,51.0,54.7,50.1,46.9,94,79,52,30.01,29.91,11,1,14,0.00
2013-5-9,77.2,58.8,44.8,55.7,49.4,42.9,96,74,46,30.05,29.94,12,1,15,0.00
2013-5-10,81.2,61.7,48.5,58.0,51.3,45.7,92,72,44,30.06,29.97,9,1,15,0.00
2013-5-11,91.4,64.0,45.5,60.2,51.4,43.7,98,69,31,30.03,29.91,9,1,14,0.00
2013-5-12,88.4,63.9,42.8,61.9,51.1,41.2,97,68,36,30.01,29.89,9,1,16,0.00
2013-5-13,90.5,65.9,46.1,57.8,49.4,43.9,99,62,25,29.96,29.81,14,3,21,0.00
2013-5-14,90.1,69.9,51.1,50.4,44.9,38.2,85,46,20,29.86,29.75,16,3,18,0.00
2013-5-15,81.8,61.7,43.9,48.0,43.5,40.1,91,56,25,29.89,29.84,14,3,21,0.00
2013-5-16,75.1,64.1,54.5,51.0,48.0,43.9,70,57,35,29.89,29.80,13,4,17,0.00
2013-5-17,77.6,62.1,48.9,49.0,43.5,34.8,81,54,28,29.95,29.84,11,2,19,0.00
2013-5-18,81.2,63.5,41.9,50.4,44.4,38.8,91,55,26,30.00,29.94,13,4,19,0.00
2013-5-19,90.5,70.1,52.6,47.0,42.8,34.9,70,43,15,30.02,29.85,11,2,15,0.00
2013-5-20,93.6,71.0,50.5,50.1,44.4,33.0,82,47,13,29.90,29.77,12,1,15,0.00
2013-5-21,72.3,59.8,48.5,46.1,42.1,34.7,87,55,31,29.89,29.78,20,6,28,0.00
2013-5-22,70.1,56.4,45.7,40.1,33.4,25.6,68,44,22,29.92,29.79,16,5,20,0.00
2013-5-23,76.5,58.6,46.2,43.1,38.6,32.9,73,51,21,29.89,29.78,14,4,20,0.00
2013-5-24,80.3,61.5,46.1,44.3,40.1,35.0,77,50,23,29.88,29.78,14,2,17,0.00
2013-5-25,79.8,61.4,42.1,47.3,41.7,33.7,88,53,20,29.92,29.82,18,3,23,0.00
2013-5-26,77.6,64.2,53.8,49.7,46.6,40.9,82,56,28,29.98,29.90,16,4,19,0.00
2013-5-27,63.9,58.3,51.9,56.0,50.4,42.9,97,76,63,29.99,29.88,12,1,13,0.06
2013-5-28,80.7,64.4,55.0,58.3,54.0,49.9,99,73,37,29.88,29.78,9,1,13,0.02
2013-5-29,81.4,65.6,56.2,52.1,48.1,41.9,79,56,25,29.83,29.75,13,4,21,0.00
2013-5-30,84.5,65.7,52.2,45.9,42.4,28.5,71,47,15,29.87,29.80,15,4,20,0.00
2013-5-31,94.7,72.8,54.8,50.9,44.2,37.3,66,40,15,29.90,29.78,12,2,17,0.00
2013-6-1,95.1,75.1,55.9,53.4,45.5,40.9,62,37,20,29.82,29.66,15,3,20,0.00
2013-6-2,91.4,73.4,59.2,53.3,48.2,44.6,67,43,25,29.67,29.52,13,2,19,0.00
2013-6-3,76.5,61.8,48.2,53.7,49.9,45.1,91,67,43,29.77,29.59,11,2,17,0.00
2013-6-4,72.7,58.9,47.3,54.0,49.7,44.8,95,74,50,29.85,29.75,14,1,17,0.00
2013-6-5,78.8,61.6,52.5,56.2,51.2,48.1,86,71,44,29.88,29.78,10,2,17,0.00
2013-6-6,84.3,62.1,51.4,58.4,51.5,48.2,92,72,39,29.84,29.71,10,2,17,0.00
2013-6-7,99.9,69.1,51.1,60.8,53.9,49.4,96,66,26,29.77,29.60,11,1,13,0.00
2013-6-8,97.5,71.4,55.0,63.5,55.1,50.5,88,61,27,29.73,29.56,11,2,19,0.00
2013-6-9,72.7,62.0,54.2,55.5,52.7,50.4,89,73,52,29.77,29.72,15,2,17,0.00
2013-6-10,61.3,58.0,55.0,57.4,54.1,51.8,98,87,74,29.85,29.67,6,0,10,0.11
2013-6-11,83.4,65.8,48.9,59.2,52.9,41.3,98,68,39,29.86,29.76,11,1,14,0.00
2013-6-12,84.5,66.4,48.2,45.8,42.8,38.0,82,46,22,29.86,29.78,18,4,23,0.00
2013-6-13,85.7,67.4,53.3,46.0,41.8,31.2,63,43,15,29.96,29.86,14,4,19,0.00
2013-6-14,92.7,70.7,51.0,48.8,43.7,34.1,79,45,14,29.89,29.68,14,1,16,0.00
2013-6-15,86.7,64.6,44.6,54.1,48.4,42.1,93,61,29,29.85,29.71,13,2,18,0.00
2013-6-16,90.1,68.4,45.4,50.9,46.0,41.3,94,53,20,29.94,29.85,12,2,17,0.00
2013-6-17,85.7,68.1,47.9,54.3,48.5,42.9,86,53,30,29.95,29.87,12,3,19,0.00
2013-6-18,76.5,63.9,55.0,50.7,45.4,37.9,75,54,27,29.89,29.83,16,5,24,0.00
2013-6-19,79.2,64.5,52.5,46.8,44.4,41.3,80,52,27,29.92,29.87,19,5,19,0.00
2013-6-20,85.1,68.2,54.8,45.6,42.3,35.7,67,43,18,29.90,29.80,14,4,19,0.00
2013-6-21,91.8,69.6,46.7,47.1,41.9,32.7,85,44,15,29.84,29.77,13,2,17,0.00
2013-6-22,93.6,73.6,54.1,52.7,44.0,26.2,68,40,9,29.80,29.72,17,3,21,0.00
2013-6-23,73.2,65.3,58.0,59.3,55.4,51.2,87,71,57,29.73,29.67,7,1,14,0.00
2013-6-24,63.4,59.2,56.9,57.9,55.7,53.4,97,89,77,29.78,29.66,6,0,9,0.07
2013-6-25,64.7,61.4,58.1,63.2,60.7,57.5,100,98,92,29.86,29.75,6,0,17,0.46
2013-6-26,84.0,69.5,60.7,66.5,62.4,58.6,100,81,48,29.94,29.85,7,1,12,0.03
2013-6-27,96.6,73.7,57.5,66.1,60.7,55.7,99,70,31,29.96,29.88,7,1,12,0.00
2013-6-28,103.8,81.7,59.3,65.6,56.0,42.4,97,52,14,29.91,29.77,14,3,20,0.00
2013-6-29,106.5,84.6,60.9,62.8,55.4,47.2,82,42,17,29.80,29.68,12,2,17,0.00
2013-6-30,99.7,78.6,58.4,63.3,58.3,54.2,90,55,28,29.72,29.63,10,2,15,0.00
2013-7-1,102.3,77.7,55.6,64.1,58.2,52.7,92,57,24,29.73,29.68,8,1,14,0.00
2013-7-2,97.5,75.2,60.2,65.1,58.2,54.8,83,58,29,29.81,29.70,11,2,19,0.00
2013-7-3,93.4,72.9,57.5,65.3,58.2,54.3,92,64,35,29.81,29.64,13,1,18,0.00
2013-7-4,104.6,81.6,64.5,65.4,54.0,40.4,75,44,17,29.72,29.55,18,4,21,0.00
2013-7-5,89.3,71.9,55.6,57.7,51.4,43.6,76,51,31,29.63,29.56,11,2,20,0.00
2013-7-6,84.7,64.5,51.9,59.0,52.7,48.2,91,68,40,29.68,29.61,11,1,17,0.00
2013-7-7,86.1,64.0,52.9,59.0,52.6,50.0,91,71,36,29.75,29.66,14,1,17,0.00
2013-7-8,88.8,62.9,52.3,58.8,52.4,49.7,93,73,33,29.86,29.75,9,1,14,0.00
2013-7-9,97.3,71.4,52.8,56.4,51.4,44.2,98,60,17,29.91,29.81,11,1,12,0.00
2013-7-10,86.5,64.1,51.7,56.2,50.9,47.8,94,68,27,29.87,29.77,11,2,16,0.00
2013-7-11,82.6,60.8,51.0,56.4,50.9,48.5,93,73,40,29.83,29.73,11,2,17,0.00
2013-7-12,84.0,63.4,53.2,57.5,52.2,49.7,89,70,39,29.83,29.73,11,1,16,0.00
2013-7-13,89.7,65.8,45.7,57.8,50.6,43.7,96,64,22,29.83,29.77,11,1,19,0.00
2013-7-14,85.9,63.5,51.4,58.0,51.9,48.8,96,71,33,29.88,29.76,14,2,17,0.00
2013-7-15,75.8,58.7,50.5,55.7,50.8,48.7,94,77,47,29.81,29.71,14,1,18,0.00
2013-7-16,75.3,60.2,52.3,56.6,52.4,49.0,93,77,51,29.91,29.75,12,1,15,0.00
2013-7-17,86.5,64.8,48.6,58.8,53.3,46.3,96,71,37,29.97,29.89,10,1,16,0.00
2013-7-18,88.8,66.3,53.3,58.8,53.9,50.6,98,70,32,29.94,29.80,12,2,19,0.00
2013-7-19,92.9,66.3,50.2,60.1,53.2,47.6,98,69,31,29.83,29.69,12,2,16,0.00
2013-7-20,91.4,64.4,49.4,60.2,52.3,46.9,96,70,32,29.72,29.59,13,2,19,0.00
2013-7-21,88.2,64.7,50.2,57.9,51.6,47.3,92,67,30,29.78,29.64,12,2,19,0.00
2013-7-22,88.4,65.3,48.3,57.2,51.9,46.0,95,67,26,29.85,29.78,10,1,16,0.00
2013-7-23,81.4,68.7,58.6,58.5,55.0,50.9,85,64,35,29.88,29.81,10,1,13,0.00
2013-7-24,90.7,69.5,53.9,59.2,54.3,51.2,92,63,30,29.86,29.78,14,2,17,0.00
2013-7-25,86.1,65.8,54.2,57.8,53.4,50.6,93,68,37,29.90,29.80,11,2,18,0.00
2013-7-26,85.1,63.2,52.6,58.3,52.7,50.0,92,72,39,29.97,29.87,12,2,19,0.00
2013-7-27,82.6,62.9,53.8,58.1,53.1,50.3,94,74,42,29.91,29.73,14,2,15,0.00
2013-7-28,79.0,60.3,52.8,56.8,52.1,49.7,95,77,45,29.77,29.67,14,2,19,0.00
2013-7-29,75.4,59.4,52.0,56.8,51.8,47.9,90,77,51,29.90,29.72,10,1,16,0.00
2013-7-30,79.0,61.2,53.1,58.7,52.7,49.8,93,76,48,29.99,29.91,14,2,17,0.00
2013-7-31,83.2,64.2,52.2,59.2,52.8,46.4,97,71,39,29.97,29.84,8,1,17,0.00
2013-8-1,85.9,66.9,45.5,54.3,49.7,43.5,96,59,31,29.92,29.81,12,2,16,0.00
2013-8-2,90.3,68.0,46.7,53.7,49.3,44.2,94,57,25,29.86,29.74,12,1,17,0.00
2013-8-3,85.5,62.1,47.4,56.2,51.2,45.1,96,72,36,29.85,29.78,17,2,18,0.00
2013-8-4,80.7,60.6,52.2,56.0,51.6,49.9,93,76,40,29.89,29.81,12,1,17,0.00
2013-8-5,79.8,60.9,52.3,56.7,51.7,49.1,94,75,41,29.91,29.81,9,1,16,0.00
2013-8-6,80.5,60.0,51.6,55.9,51.4,48.1,94,76,41,29.94,29.85,15,1,18,0.00
2013-8-7,74.9,62.6,52.6,56.4,52.6,49.4,90,71,51,29.98,29.91,12,1,15,0.00
2013-8-8,79.2,63.1,52.6,58.3,54.3,49.7,95,75,47,29.92,29.81,15,1,16,0.00
2013-8-9,78.5,61.8,52.5,57.1,52.9,50.7,95,75,46,29.88,29.78,11,1,20,0.00
2013-8-10,81.6,64.8,56.0,58.4,54.4,52.1,89,72,43,29.92,29.86,11,2,17,0.00
2013-8-11,85.9,65.3,54.7,60.0,55.1,51.4,96,74,39,29.90,29.79,11,2,17,0.00
2013-8-12,87.4,63.3,53.2,57.7,53.3,49.7,98,75,35,29.88,29.80,10,1,16,0.00
2013-8-13,95.9,69.0,50.7,56.4,52.1,47.8,99,64,20,29.86,29.76,12,1,16,0.00
2013-8-14,96.6,69.5,48.2,58.2,52.1,45.9,95,61,23,29.84,29.74,11,1,18,0.00
2013-8-15,94.7,70.8,53.1,63.5,58.2,51.3,96,69,33,29.83,29.76,11,1,15,0.00
2013-8-16,94.5,71.9,55.6,63.2,57.6,52.0,97,67,27,29.85,29.80,12,1,19,0.00
2013-8-17,91.4,70.9,52.0,58.8,55.0,50.0,96,63,30,29.85,29.71,11,1,14,0.00
2013-8-18,98.7,75.7,54.5,61.2,56.5,51.6,93,58,26,29.75,29.65,7,1,17,0.00
2013-8-19,92.5,71.8,59.0,61.8,56.9,54.1,85,62,32,29.78,29.68,10,1,14,0.00
2013-8-20,87.0,66.9,58.3,59.6,56.1,54.3,89,72,34,29.78,29.69,11,1,16,0.00
2013-8-21,84.1,65.6,53.6,57.1,54.5,49.3,86,70,38,29.83,29.73,12,1,15,0.00
2013-8-22,80.1,63.1,52.5,58.0,53.3,49.3,93,73,44,29.85,29.76,15,1,16,0.00
2013-8-23,85.3,66.0,51.6,58.1,53.6,48.5,92,68,38,29.80,29.67,11,1,18,0.00
2013-8-24,89.7,67.4,49.2,57.8,53.3,47.2,97,66,32,29.75,29.68,13,2,18,0.00
2013-8-25,83.4,67.9,55.7,61.2,56.5,52.2,94,70,36,29.82,29.75,11,1,16,0.00
2013-8-26,89.3,70.9,59.9,58.0,54.7,45.4,92,62,25,29.88,29.76,10,1,15,0.00
2013-8-27,92.3,69.2,49.5,56.2,51.0,46.1,92,58,24,29.78,29.67,13,1,15,0.00
2013-8-28,88.6,68.7,53.8,62.6,58.0,51.5,99,73,40,29.82,29.73,13,1,18,0.00
2013-8-29,90.7,71.5,59.9,62.9,60.1,57.0,97,72,36,29.94,29.83,10,1,13,0.00
2013-8-30,98.0,75.1,55.0,61.2,55.7,48.9,98,59,24,29.91,29.77,9,1,12,0.00
2013-8-31,91.2,70.2,52.6,57.5,53.4,49.4,94,60,25,29.85,29.75,12,1,17,0.00
2013-9-1,88.0,68.2,53.1,58.5,55.1,50.7,95,68,32,29.83,29.73,11,1,17,0.00
2013-9-2,87.8,69.6,53.3,61.4,57.1,51.6,97,69,38,29.83,29.75,12,2,14,0.00
2013-9-3,88.0,68.2,50.8,56.9,51.9,43.2,98,63,22,29.86,29.77,11,2,14,0.00
2013-9-4,89.3,68.7,50.1,57.5,52.8,47.3,97,63,27,29.89,29.78,11,1,19,0.00
2013-9-5,86.3,69.0,50.7,54.4,50.5,45.4,95,57,25,29.86,29.81,12,3,18,0.00
2013-9-6,96.3,73.1,54.8,55.2,49.4,45.1,84,50,18,29.86,29.71,7,1,12,0.00
2013-9-7,99.7,72.8,49.8,53.3,46.2,38.7,86,48,13,29.76,29.67,10,1,16,0.00
2013-9-8,99.0,70.5,49.6,55.1,50.9,47.0,95,57,20,29.77,29.63,10,1,15,0.00
2013-9-9,101.7,69.4,50.4,58.0,52.1,47.3,93,61,20,29.68,29.56,11,1,18,0.00
2013-9-10,76.0,63.7,55.6,59.5,56.3,52.6,93,78,54,29.79,29.61,12,1,16,0.00
2013-9-11,73.0,64.3,60.5,60.3,58.5,56.7,95,82,62,29.89,29.78,6,0,12,0.00
2013-9-12,85.3,68.1,58.0,61.9,58.1,54.8,90,73,44,29.86,29.74,11,1,14,0.00
2013-9-13,88.4,66.5,56.3,58.4,55.7,52.4,97,73,35,29.79,29.61,10,1,15,0.00
2013-9-14,86.1,64.2,51.7,58.2,54.3,49.4,98,74,38,29.70,29.58,10,1,15,0.00
2013-9-15,85.3,64.7,47.1,57.6,53.5,45.1,98,72,37,29.73,29.65,10,1,14,0.00
2013-9-16,89.0,68.3,53.2,58.6,54.5,49.9,99,67,30,29.77,29.63,11,1,14,0.00
2013-9-17,79.6,65.7,51.0,54.3,50.6,47.5,92,61,35,29.78,29.67,17,5,22,0.00
2013-9-18,89.3,69.0,54.2,49.2,45.3,34.6,76,47,15,29.80,29.67,11,1,14,0.00
2013-9-19,93.6,66.5,45.1,49.5,42.6,25.4,87,51,11,29.74,29.62,8,1,14,0.00
2013-9-20,80.3,60.3,42.9,61.2,51.9,41.2,97,77,44,29.71,29.65,13,2,19,0.07
2013-9-21,71.6,61.5,51.3,63.4,56.1,48.2,99,85,44,29.78,29.66,13,2,18,0.28
2013-9-22,77.0,60.9,45.7,54.5,48.3,41.2,99,69,28,29.89,29.78,13,2,17,0.00
2013-9-23,86.5,68.2,51.6,59.1,53.0,48.1,93,62,28,29.89,29.78,9,2,13,0.00
2013-9-24,79.0,66.4,56.9,50.9,48.5,43.3,71,55,30,29.86,29.78,14,4,19,0.00
2013-9-25,73.3,59.5,45.1,48.1,43.1,36.6,94,59,28,29.83,29.71,17,3,25,0.00
2013-9-26,78.8,62.3,46.4,44.5,39.6,33.8,74,47,20,29.89,29.73,12,2,17,0.00
2013-9-27,83.0,61.8,44.9,44.4,39.2,26.6,86,51,13,29.97,29.88,7,1,12,0.00
2013-9-28,84.1,61.1,42.3,52.0,41.6,29.4,87,57,15,29.96,29.86,10,1,16,0.00
2013-9-29,73.5,62.1,52.3,60.7,56.7,49.0,93,83,62,29.96,29.91,10,2,15,0.00
2013-9-30,75.6,64.8,55.1,64.5,57.8,45.3,96,80,51,29.92,29.85,9,1,15,0.00
2013-10-1,78.3,62.4,44.9,48.7,45.8,40.7,95,59,28,29.88,29.79,12,3,15,0.00
2013-10-2,78.6,62.0,51.1,47.0,43.6,39.4,80,54,25,29.91,29.80,13,3,19,0.00
2013-10-3,76.1,63.5,53.3,39.6,32.1,16.8,54,35,11,29.96,29.86,17,4,21,0.00
2013-10-4,83.0,65.4,48.0,33.3,25.5,19.3,50,25,10,29.97,29.89,17,2,24,0.00
2013-10-5,88.6,60.7,38.9,35.8,29.4,21.9,67,37,9,30.07,29.97,7,0,10,0.00
2013-10-6,87.0,59.8,39.6,38.2,33.2,29.7,73,44,14,30.01,29.88,7,0,11,0.00
2013-10-7,86.7,62.2,39.1,44.4,34.8,24.8,78,43,14,29.89,29.72,6,1,11,0.00
2013-10-8,80.9,61.5,46.0,46.1,43.0,39.1,86,55,24,29.78,29.60,12,2,15,0.00
2013-10-9,76.7,61.2,49.2,43.2,39.3,32.4,70,48,21,29.64,29.49,13,3,16,0.00
2013-10-10,77.6,57.3,43.6,45.9,40.6,36.6,88,58,25,29.88,29.64,10,1,14,0.00
2013-10-11,73.9,53.3,42.3,48.6,44.6,40.0,99,77,33,29.97,29.84,9,1,14,0.00
2013-10-12,75.6,54.9,37.3,48.7,42.6,35.7,98,69,31,29.88,29.73,13,2,19,0.00
2013-10-13,78.6,57.2,40.5,46.6,41.0,33.1,96,61,20,29.94,29.79,7,1,12,0.00
2013-10-14,82.8,56.0,38.2,43.4,37.1,33.9,93,58,18,29.99,29.86,6,0,13,0.00
2013-10-15,86.5,57.6,38.0,40.9,32.6,21.2,84,49,10,29.92,29.80,7,0,12,0.00
2013-10-16,84.1,56.8,36.6,36.9,32.1,27.7,80,47,13,29.96,29.87,7,0,10,0.00
2013-10-17,85.3,58.1,38.8,38.7,34.4,31.5,78,48,16,29.96,29.81,7,0,12,0.00
2013-10-18,84.3,56.3,37.2,41.8,37.6,32.9,87,57,20,29.92,29.85,10,0,13,0.00
2013-10-19,86.7,57.5,37.0,42.6,37.8,31.0,96,58,14,29.95,29.85,7,0,10,0.00
2013-10-20,84.0,55.2,37.3,46.9,41.4,35.1,97,67,24,29.90,29.77,10,1,13,0.00
2013-10-21,76.1,54.5,41.9,49.7,45.3,39.1,99,76,35,29.88,29.77,7,1,11,0.00
2013-10-22,81.6,56.0,42.3,49.5,45.2,40.4,99,74,28,29.89,29.77,7,0,11,0.00
2013-10-23,78.1,53.5,39.8,51.8,45.1,37.6,99,78,32,29.85,29.74,10,1,13,0.00
2013-10-24,66.0,52.1,42.1,49.4,46.4,39.3,98,83,53,29.98,29.84,5,0,9,0.00
2013-10-25,75.1,52.4,36.8,50.0,43.3,35.4,99,76,37,30.04,29.96,5,0,10,0.00
2013-10-26,84.5,56.6,37.5,47.2,40.7,35.9,99,65,20,30.02,29.87,6,0,7,0.00
2013-10-27,63.7,50.6,39.2,49.1,43.7,37.0,99,80,52,29.90,29.50,12,1,18,0.00
2013-10-28,69.3,54.7,42.3,44.5,41.0,36.2,89,63,31,29.69,29.53,9,2,13,0.00
2013-10-29,67.4,51.4,39.1,46.7,42.4,36.6,94,74,44,29.93,29.70,9,1,10,0.00
2013-10-30,70.3,49.0,35.3,47.4,39.8,33.9,98,74,38,30.03,29.93,9,0,12,0.00
2013-10-31,76.3,52.0,35.6,46.1,39.9,33.7,96,69,29,30.06,29.93,5,0,9,0.00
2013-11-1,79.6,55.3,38.2,47.7,41.5,35.9,97,66,28,30.02,29.88,5,0,10,0.00
2013-11-2,75.3,55.0,39.6,49.9,41.2,34.2,92,64,26,29.90,29.77,13,3,18,0.00
2013-11-3,64.2,53.7,47.3,38.9,33.6,26.2,67,49,26,29.95,29.81,13,4,19,0.00
2013-11-4,70.6,56.1,42.3,37.2,32.8,27.0,67,45,20,29.98,29.80,12,3,17,0.00
2013-11-5,77.4,55.3,39.8,39.2,36.2,33.6,80,54,22,30.09,29.97,6,0,11,0.00
2013-11-6,77.4,56.9,41.1,47.3,40.1,33.7,90,58,28,30.14,30.03,3,0,10,0.00
2013-11-7,77.7,57.7,45.1,45.6,40.1,36.7,90,57,25,30.05,29.93,7,0,10,0.00
2013-11-8,78.6,56.4,39.5,50.7,43.0,31.3,95,67,22,29.96,29.81,9,1,11,0.00
2013-11-9,76.3,51.3,35.0,47.2,39.9,33.1,96,71,31,29.92,29.82,10,1,13,0.00
2013-11-10,68.1,49.3,37.2,50.0,42.8,34.8,98,81,51,29.99,29.89,9,0,12,0.00
2013-11-11,66.6,52.5,38.3,47.7,45.0,36.6,97,78,46,30.05,29.95,4,0,7,0.00
2013-11-12,75.1,58.2,44.5,47.7,44.7,38.8,87,64,27,30.15,30.03,10,0,13,0.00
2013-11-13,82.2,56.0,39.2,52.3,44.9,36.7,95,72,30,30.14,29.97,6,0,11,0.00
2013-11-14,67.1,52.7,42.5,51.2,43.0,32.3,99,74,38,29.99,29.76,13,1,18,0.00
2013-11-15,70.3,54.8,40.6,39.8,37.2,31.9,82,54,25,29.76,29.58,11,2,14,0.00
2013-11-16,67.9,53.8,40.2,45.8,40.8,34.6,88,64,40,29.79,29.63,13,3,19,0.00
2013-11-17,63.9,46.8,34.4,46.4,40.4,33.1,99,81,50,29.96,29.79,6,0,9,0.00
2013-11-18,61.2,46.8,33.8,47.8,41.4,32.2,98,83,56,30.03,29.94,5,1,9,0.02
2013-11-19,55.1,52.5,49.2,54.8,52.1,47.8,100,99,94,29.97,29.80,3,0,4,0.55
2013-11-20,59.3,55.1,48.5,59.2,54.4,47.2,100,98,85,29.79,29.71,5,0,9,0.16
2013-11-21,65.3,55.4,48.2,50.1,34.0,13.5,98,57,15,29.86,29.77,17,2,24,0.00
2013-11-22,66.1,59.3,52.2,19.8,14.3,10.0,26,17,11,29.82,29.80,6,2,11,0.00
2013-11-23,70.9,55.4,34.0,32.5,22.5,9.6,80,33,12,29.99,29.81,16,2,22,0.00
2013-11-24,66.1,43.2,29.0,40.1,32.9,26.2,92,72,31,30.13,29.98,7,0,13,0.00
2013-11-25,66.3,43.9,30.7,40.8,35.1,29.1,98,76,32,30.21,30.12,5,0,9,0.00
2013-11-26,65.0,45.8,34.3,42.3,37.3,32.2,96,76,35,30.15,29.93,3,0,5,0.01
2013-11-27,66.6,46.4,33.1,46.4,38.3,31.5,97,77,42,29.92,29.70,4,0,10,0.00
2013-11-28,72.3,48.8,34.6,45.9,38.5,33.0,97,73,28,29.96,29.74,4,0,7,0.00
2013-11-29,70.1,47.3,33.8,45.5,38.3,32.5,98,76,35,30.09,29.96,5,0,9,0.00
2013-11-30,70.4,48.5,36.9,46.0,39.4,34.7,96,75,31,30.15,30.05,3,0,6,0.00
2013-12-1,72.7,49.1,35.8,48.5,41.1,34.2,99,78,38,30.21,30.09,5,0,9,0.00
2013-12-2,65.3,51.0,35.9,50.2,44.5,34.8,99,81,52,30.10,29.82,12,2,19,0.00
2013-12-3,56.6,48.6,38.2,49.0,31.9,23.4,88,54,29,29.83,29.71,13,2,20,0.00
2013-12-4,55.0,37.3,25.0,30.8,25.5,20.0,92,67,26,29.97,29.83,5,0,7,0.00
2013-12-5,52.2,32.2,20.8,29.5,22.1,17.2,92,71,28,30.03,29.96,6,0,9,0.00
2013-12-6,47.3,33.3,18.9,39.5,27.7,15.9,97,82,42,30.05,29.77,6,0,10,0.43
2013-12-7,46.0,34.7,25.1,35.8,26.6,21.1,99,76,41,30.14,29.78,13,1,22,0.02
2013-12-8,47.9,30.8,22.7,27.8,21.9,18.6,93,73,32,30.19,30.09,11,0,11,0.00
2013-12-9,51.9,31.8,19.9,30.3,21.9,16.9,92,71,34,30.31,30.17,6,0,10,0.00
2013-12-10,56.6,33.3,19.1,31.5,23.1,16.4,94,71,26,30.29,30.08,4,0,6,0.00
2013-12-11,60.7,36.1,23.3,35.2,27.0,20.8,94,74,28,30.12,30.04,6,0,7,0.00
2013-12-12,60.5,37.3,23.8,36.6,28.3,21.6,96,74,27,30.14,30.03,5,0,5,0.00
2013-12-13,65.2,39.2,24.4,38.4,30.0,22.2,96,74,30,30.20,30.10,4,0,6,0.00
2013-12-14,67.1,41.7,28.1,41.4,33.2,26.3,98,76,33,30.28,30.16,4,0,6,0.00
2013-12-15,64.5,40.0,26.4,41.2,32.7,24.6,98,79,39,30.25,30.12,4,0,6,0.00
2013-12-16,65.6,40.3,29.1,40.4,33.1,27.5,98,80,36,30.12,29.99,7,0,13,0.00
2013-12-17,67.8,42.1,29.4,42.0,33.9,27.8,97,77,33,30.06,29.91,5,0,7,0.00
2013-12-18,60.5,46.0,31.8,44.9,37.0,29.7,94,73,45,29.91,29.63,14,1,15,0.00
2013-12-19,63.5,48.5,32.9,38.1,30.8,18.7,80,54,20,29.82,29.60,14,2,19,0.00
2013-12-20,65.5,48.6,32.2,39.5,27.6,18.8,78,49,17,29.88,29.79,11,2,13,0.00
2013-12-21,66.8,55.4,46.4,45.8,43.8,39.5,86,67,44,29.96,29.84,12,2,20,0.00
2013-12-22,69.8,48.6,36.8,45.4,40.0,33.8,97,76,37,30.16,29.96,6,0,11,0.00
2013-12-23,70.3,45.4,31.6,45.2,37.2,30.0,99,77,37,30.27,30.15,4,0,7,0.00
2013-12-24,72.1,46.1,33.5,46.5,38.3,31.9,98,78,39,30.22,30.08,4,0,7,0.00
2013-12-25,69.9,42.4,28.2,40.6,33.2,26.9,99,75,27,30.18,30.07,2,0,3,0.00
2013-12-26,71.1,42.3,26.9,36.7,30.4,24.1,94,69,24,30.14,30.02,4,0,6,0.00
2013-12-27,59.3,39.6,28.1,38.6,30.8,25.2,90,74,40,30.11,30.01,4,0,5,0.00
2013-12-28,71.6,41.8,24.8,37.4,29.2,22.5,94,67,25,30.03,29.90,3,0,5,0.00
2013-12-29,66.6,42.9,29.3,31.5,27.6,24.6,84,60,22,30.06,29.94,4,0,7,0.00
2013-12-30,65.0,41.6,26.3,35.8,28.8,22.5,89,65,27,30.12,30.04,4,0,6,0.00
2013-12-31,64.8,42.4,31.9,37.8,31.8,27.6,89,70,30,30.15,30.03,4,0,10,0.00
2014-1-1,65.8,41.8,26.7,35.9,29.3,24.1,93,67,25,30.08,29.99,6,0,7,0.00
2014-1-2,66.1,43.9,30.7,39.5,33.2,27.0,91,69,33,30.06,29.94,5,0,9,0.00